Location: Grasslands National Park East Block
(49.0708°N, 106.5295°W)
Time: 03:06:37
(UTC-06:00)

Vanguard 1 - Pass Details

Date: 28 September 2019
Orbit: 653 x 3830 km, 34.3° (Epoch: 14 October)

Event Time Altitude Azimuth Distance (km) Brightness Sun altitude
Rises 05:42:14 0° 272° (W) 7,934 - -13.7°
Reaches altitude 10° 05:48:06 10° 266° (W) 6,937 - -12.7°
Exits shadow 05:50:02 14° 264° (W) 6,608 13.6 -12.4°
Maximum altitude 06:08:17 42° 206° (SSW) 4,150 13.0 -9.5°
Drops below altitude 10° 06:22:31 10° 143° (SE) 4,977 14.1 -7.2°
Sets 06:25:56 0° 136° (SE) 5,606 14.6 -6.6°
